Location: Observatoire POLARIS
(46.3550°N, 73.3861°W)
Time: 01:05:50
(UTC-05:00)

N. Korean satellite - Visible Passes

Search period start: 18 January 2018 00:00
Search period end: 28 January 2018 00:00
Orbit: 459 x 515 km, 97.2° (Epoch: 17 January)

Date Brightness Start Highest point End Pass type
(mag) Time Alt. Az. Time Alt. Az. Time Alt. Az.
18 Jan 9.0 06:01:40 10° NE 06:04:34 24° E 06:07:26 10° SSE visible
18 Jan 8.1 18:13:18 10° SSW 18:16:42 38° W 18:20:04 10° NNW visible
19 Jan 9.9 05:38:58 10° ENE 05:40:43 13° E 05:42:27 10° ESE visible
19 Jan 6.7 17:49:24 10° S 17:53:00 77° WSW 17:56:35 10° NNW visible
20 Jan 6.4 06:47:23 10° N 06:50:51 83° WNW 06:54:17 10° SSW visible
20 Jan 6.7 17:25:52 10° SSE 17:29:22 52° ENE 17:32:50 10° N visible
20 Jan 10.1 19:01:58 10° WSW 19:03:11 11° W 19:04:23 10° WNW visible
21 Jan 7.7 06:23:48 10° NNE 06:27:09 47° E 06:30:29 10° S visible
21 Jan 9.3 18:36:33 10° SW 18:39:19 21° W 18:42:04 10° NW visible
22 Jan 9.1 06:00:30 10° NE 06:03:23 24° E 06:06:14 10° SSE visible
22 Jan 8.1 18:12:10 10° SSW 18:15:32 39° W 18:18:53 10° NNW visible
23 Jan 10.0 05:37:50 10° ENE 05:39:32 13° E 05:41:13 10° ESE visible
23 Jan 6.6 17:48:15 10° S 17:51:49 79° WSW 17:55:22 10° NNW visible
24 Jan 6.4 06:46:10 10° NNE 06:49:38 86° WNW 06:53:06 10° SSW visible
24 Jan 6.7 17:24:44 10° SSE 17:28:11 51° ENE 17:31:36 10° N visible
24 Jan 10.1 19:00:45 10° WSW 19:01:59 11° W 19:03:13 10° WNW visible
25 Jan 7.7 06:22:35 10° NNE 06:25:56 45° E 06:29:17 10° S visible
25 Jan 9.3 18:35:22 10° SW 18:38:07 21° W 18:40:51 10° NW visible
26 Jan 9.2 05:59:17 10° NE 06:02:09 23° E 06:05:01 10° SSE visible
26 Jan 8.0 18:11:00 10° S 18:14:19 39° W 18:17:39 10° NNW visible
27 Jan 10.0 05:36:39 10° ENE 05:38:18 13° E 05:39:56 10° ESE visible
27 Jan 6.6 17:47:05 10° S 17:50:36 81° WSW 17:54:06 10° NNW visible
